Regional Weather Roundup
Issued by NWS Jackson, KY

Home | Current Version | Previous Version | Text Only | Print | Product List | Glossary On
Versions: 1 2 3 4 5 6 7 8 9 10 11 12 13 14 15 16 17 18 19 20 21 22 23 24 25 26 27 28 29 30 31 32 33 34 35 36 37 38 39 40 41 42 43 44 45 46 47 48 49 50
000
ASUS43 KJKL 031210
RWRJKL

EAST KENTUCKY HOURLY WEATHER ROUNDUP
NATIONAL WEATHER SERVICE JACKSON KY
800 AM EDT TUE MAY 03 2016

NOTE: "FAIR" INDICATES FEW OR NO CLOUDS BELOW 12,000 FEET WITH
NO SIGNIFICANT WEATHER AND/OR OBSTRUCTIONS TO VISIBILITY.

* THESE REPORTS ARE NOT UNDER NWS QUALITY CONTROL AND MAY NOT
  REPORT WEATHER SUCH AS PRECIPITATION AND FOG.

KYZ079-080-083-085-087-088-110-112-115-119-120-031300
...EASTERN KENTUCKY...

CITY           SKY/WX    TMP DP  RH WIND       PRES   REMARKS
JACKSON        CLOUDY    55  52  89 CALM      29.90S FOG
6HR MIN TEMP:  54; 6HR MAX TEMP:  58; 6HR PCP:  0.04;

LONDON         CLOUDY    55  54  96 W5        29.92R
6HR MIN TEMP:  54; 6HR MAX TEMP:  58;

SOMERSET*      CLOUDY    54  54 100 NW5       29.94R
MONTICELLO*    CLOUDY    56  54  93 NW6       29.95R
6HR MIN TEMP:  56; 6HR MAX TEMP:  59; 6HR PCP: TRACE;

WILLIAMSBURG*  CLOUDY    54  54 100 NW3       29.93R
MIDDLESBORO*   CLOUDY    58  57  97 NW3       29.91R
6HR MIN TEMP:  58; 6HR MAX TEMP:  59; 6HR PCP:  0.08;

HARLAN APT*    CLOUDY    55  54  94 S3        29.90S
HAZARD APT*    CLOUDY    55  55 100 W3        29.91R
BLACK MTN*       N/A     52  52 100 E1          N/A
PIKE CO APT*   RAIN      56  56 100 W6        29.88S
BIG SANDY APT* CLOUDY    57  57 100 W3        29.88S FOG
6HR MIN TEMP:  57; 6HR MAX TEMP:  59;

MOREHEAD APT*  CLOUDY    55  54  94 W3        29.92R FOG
$$

KYZ035-036-041-042-044-050-067-078-099-031300
...CENTRAL KENTUCKY...

CITY           SKY/WX    TMP DP  RH WIND       PRES   REMARKS
MT STERLING*   CLOUDY    54  52  94 CALM      29.92R
FLEMING/MASON* CLOUDY    54  52  93 CALM      29.91R
DANVILLE*      CLOUDY    54  50  87 NW6       29.93S
RICHMOND*      CLOUDY    54  50  87 W3        29.91S
LEXINGTON      CLOUDY    55  50  83 W7        29.92R
6HR MIN TEMP:  54; 6HR MAX TEMP:  56;

FRANKFORT      CLOUDY    54  49  83 W7        29.91R
6HR MIN TEMP:  53; 6HR MAX TEMP:  56;

LOUISVILLE     PTSUNNY   55  48  77 W9        29.94R
6HR MIN TEMP:  54; 6HR MAX TEMP:  57;

LEBANON*         N/A     54  50  87 W7        29.94R
BOWLING GREEN  PTSUNNY   54  50  86 W5        29.96R
6HR MIN TEMP:  53; 6HR MAX TEMP:  58;

$$

KYZ091>093-OHZ055-061-077-WVZ005-015-034-035-042-031300
...SOUTHERN OHIO/WEST VIRGINIA...

CITY           SKY/WX    TMP DP  RH WIND       PRES   REMARKS
COVINGTON      CLOUDY    54  51  90 NW5       29.90R
COLUMBUS       CLOUDY    47  44  90 NE6       29.90S
DAYTON         CLOUDY    48  45  89 N8        29.93R
WILMINGTON     LGT RAIN  49  46  90 NE5       29.91R
HUNTINGTON     CLOUDY    57  55  93 NW3       29.87S FOG
CHARLESTON     CLOUDY    58  56  93 NW6       29.86S FOG
PINEVILLE*     RAIN      58  55  91 MISG      29.92S
BECKLEY        CLOUDY    56  54  93 VRB5      29.88S
$$

VAZ002-007-008-TNZ017-027-036-066-071-031300
...SOUTHWEST VIRGINIA/EAST TENNESSEE...

CITY           SKY/WX    TMP DP  RH WIND       PRES   REMARKS
WISE*          CLOUDY    55  55 100 SW3       29.91F
BRISTOL        CLOUDY    60  57  89 W5        29.89R
SEVIERVILLE*   CLOUDY    61  61 100 CALM      29.89R
KNOXVILLE      CLOUDY    61  59  93 SW7       29.89R FOG
OAK RIDGE      CLOUDY    61  58  90 CALM      29.92R
CROSSVILLE     CLOUDY    55  52  89 CALM      29.95R
NASHVILLE      PTSUNNY   56  51  84 NW5       29.97R
$$

...KEY TO REMARKS...
VSB - VISIBILITY IN MILES
WCI - WIND CHILL INDEX
HX  - HEAT INDEX

$$



USA.gov is the U.S. government's official web portal to all federal, state and local government web resources and services.